TimeEDT,TemperatureF,Dew PointF,Humidity,Sea Level PressureIn,VisibilityMPH,Wind Direction,Wind SpeedMPH,Gust SpeedMPH,PrecipitationIn,Events,Conditions,WindDirDegrees,DateUTC
12:53 AM,71.1,62.1,73,29.95,10.0,Calm,Calm,-,N/A,,Overcast,0,2013-09-08 04:53:00
1:53 AM,69.1,63.0,81,29.94,10.0,Calm,Calm,-,N/A,,Overcast,0,2013-09-08 05:53:00
2:53 AM,66.9,62.1,84,29.94,9.0,Calm,Calm,-,N/A,,Clear,0,2013-09-08 06:53:00
3:53 AM,64.9,60.1,84,29.94,8.0,Calm,Calm,-,N/A,,Clear,0,2013-09-08 07:53:00
4:53 AM,64.0,60.1,87,29.95,7.0,Calm,Calm,-,N/A,,Clear,0,2013-09-08 08:53:00
5:53 AM,64.0,60.1,87,29.96,6.0,Calm,Calm,-,N/A,,Mostly Cloudy,0,2013-09-08 09:53:00
6:50 AM,64.4,62.6,94,30.00,6.0,NNE,10.4,16.1,N/A,,Mostly Cloudy,30,2013-09-08 10:50:00
6:53 AM,66.0,63.0,90,29.99,6.0,NNE,8.1,16.1,N/A,,Mostly Cloudy,20,2013-09-08 10:53:00
7:38 AM,66.2,64.4,94,30.01,4.0,NE,3.5,-,N/A,,Scattered Clouds,50,2013-09-08 11:38:00
7:51 AM,66.2,64.4,94,30.01,4.0,NNE,4.6,-,N/A,,Mostly Cloudy,20,2013-09-08 11:51:00
7:53 AM,66.9,64.0,90,30.01,4.0,NNE,4.6,-,N/A,,Mostly Cloudy,20,2013-09-08 11:53:00
8:53 AM,69.1,64.9,87,30.01,5.0,NNE,4.6,-,N/A,,Overcast,20,2013-09-08 12:53:00
9:53 AM,73.0,64.9,76,30.02,9.0,NE,8.1,-,N/A,,Overcast,40,2013-09-08 13:53:00
10:53 AM,73.0,64.9,76,30.03,10.0,ENE,8.1,-,N/A,,Overcast,60,2013-09-08 14:53:00
11:53 AM,71.1,62.1,73,30.05,10.0,NE,10.4,-,N/A,,Overcast,50,2013-09-08 15:53:00
12:53 PM,72.0,61.0,68,30.05,7.0,NE,5.8,-,N/A,,Overcast,50,2013-09-08 16:53:00
1:42 PM,73.4,60.8,65,30.06,9.0,ENE,10.4,-,N/A,,Overcast,70,2013-09-08 17:42:00
1:53 PM,73.9,61.0,64,30.06,9.0,NE,9.2,-,N/A,,Overcast,40,2013-09-08 17:53:00
2:04 PM,73.4,62.6,69,30.07,7.0,NE,10.4,-,N/A,,Overcast,50,2013-09-08 18:04:00
2:33 PM,75.2,62.6,65,30.06,10.0,East,11.5,-,N/A,,Overcast,80,2013-09-08 18:33:00
2:53 PM,78.1,63.0,60,30.04,10.0,East,9.2,-,N/A,,Overcast,80,2013-09-08 18:53:00
3:21 PM,75.2,60.8,61,30.05,10.0,East,9.2,-,N/A,,Overcast,80,2013-09-08 19:21:00
3:31 PM,75.2,60.8,61,30.05,10.0,ENE,9.2,-,N/A,,Overcast,70,2013-09-08 19:31:00
3:53 PM,75.0,61.0,62,30.04,10.0,ENE,10.4,-,N/A,,Overcast,70,2013-09-08 19:53:00
4:10 PM,73.4,60.8,65,30.05,10.0,East,12.7,-,N/A,,Overcast,100,2013-09-08 20:10:00
4:43 PM,73.4,60.8,65,30.04,10.0,ESE,11.5,-,N/A,,Overcast,110,2013-09-08 20:43:00
4:53 PM,73.9,61.0,64,30.04,10.0,East,10.4,-,N/A,,Overcast,100,2013-09-08 20:53:00
5:53 PM,73.9,61.0,64,30.03,10.0,East,6.9,-,N/A,,Mostly Cloudy,90,2013-09-08 21:53:00
6:53 PM,73.0,60.1,64,30.04,10.0,East,10.4,-,N/A,,Clear,80,2013-09-08 22:53:00
7:53 PM,70.0,61.0,73,30.03,10.0,East,6.9,-,N/A,,Clear,90,2013-09-08 23:53:00
8:53 PM,66.9,60.1,79,30.04,10.0,East,6.9,-,N/A,,Clear,100,2013-09-09 00:53:00
9:53 PM,64.9,59.0,81,30.04,10.0,East,5.8,-,N/A,,Clear,90,2013-09-09 01:53:00
10:53 PM,63.0,57.0,81,30.05,10.0,East,4.6,-,N/A,,Clear,90,2013-09-09 02:53:00
11:53 PM,62.1,55.9,80,30.06,10.0,East,4.6,-,N/A,,Clear,90,2013-09-09 03:53:00